Regional Weather Roundup
Issued by NWS

Home | Current Version | Previous Version | Graphics & Text | Print | Product List | Glossary On
Versions: 1 2 3 4 5 6 7 8 9 10 11 12 13 14 15 16 17 18 19 20 21 22 23 24 25 26 27 28 29 30 31 32 33 34 35 36 37 38 39 40 41 42 43 44 45 46 47 48 49 50
000
ASUS43 KMKX 251511
RWRWI

WISCONSIN REGIONAL WEATHER ROUNDUP
NATIONAL WEATHER SERVICE MILWAUKEE/SULLIVAN WI
1000 AM CDT SAT APR 25 2015

NOTE: "FAIR" INDICATES FEW OR NO CLOUDS BELOW 12,000 FEET WITH NO
SIGNIFICANT WEATHER AND/OR OBSTRUCTIONS TO VISIBILITY.

WIZ001-002-006>008-014>016-023>028-251600-
NORTHWEST WISCONSIN

CITY           SKY/WX    TMP DP  RH WIND       PRES   REMARKS
SUPERIOR ARPT  CLOUDY    38  31  77 E16G22    29.99S WCI  28
ASHLAND        SUNNY     43  33  68 N12       29.99R
HAYWARD        SUNNY     48  21  34 E13       29.92F
SIREN          SUNNY     48  25  40 E8        29.91R
CUMBERLAND     SUNNY     45  21  39 E10G21    29.89S
RICE LAKE      MOSUNNY   47  19  32 E13       29.91R
CHETEK         PTSUNNY   46  23  39 E8G17     29.90R
LADYSMITH      SUNNY     48  15  26 E9        29.92F
EAU CLAIRE     CLOUDY    47  28  47 E14       29.87S
MENOMONIE      CLOUDY    46  29  50 E13       29.88S
NEW RICHMOND   CLOUDY    46  30  54 E9        29.88R
OSCEOLA        CLOUDY    47  32  55 E8        29.92R
$$

WIZ003>005-009-010-017-018-251600-
NORTH CENTRAL WISCONSIN

CITY           SKY/WX    TMP DP  RH WIND       PRES   REMARKS
MANITOWISH WTR SUNNY     45  19  35 SE7       29.94R
ARBOR VITAE    SUNNY     45  16  31 E5        29.93S
WOODRUFF       SUNNY     45  16  31 E5        29.93S
RHINELANDER    PTSUNNY   43  16  33 E10       29.94S
EAGLE RIVER    SUNNY     45  16  31 E9        29.94S
LAND O LAKES   SUNNY     44  16  31 SE5       29.96R
PHILLIPS       SUNNY     45  17  33 E10       29.92S
TOMAHAWK       MOSUNNY   46  14  27 E8        29.93S
MEDFORD        MOSUNNY   46  13  26 E16G23    29.90S
MERRILL        SUNNY     47  17  30 SE12G20   29.92S
$$

WIZ029-030-035-036-043>047-251600-
CENTRAL WISCONSIN

CITY           SKY/WX    TMP DP  RH WIND       PRES   REMARKS
WAUSAU         CLOUDY    46  18  32 E13G21    29.90S
MOSINEE        CLOUDY    43  18  36 E12       29.92R
MARSHFIELD     CLOUDY    45  24  43 NE14      29.89R
STEVENS POINT  CLOUDY    41  20  43 NE15      29.91R
WAUPACA        CLOUDY    46  27  48 NE10G17   29.91S
WAUTOMA        PTSUNNY   44  28  53 E15       29.89S
WISC RAPIDS    CLOUDY    46  25  43 E13G20    29.89S
CAMP DOUGLAS   PTSUNNY   43  41  93 E16       29.84F
$$

WIZ011>013-019>022-031-037>040-048>050-251600-
NORTHEAST WISCONSIN

CITY           SKY/WX    TMP DP  RH WIND       PRES   REMARKS
ANTIGO         PTSUNNY   43  17  35 E12G18    29.93F
SHAWANO        CLOUDY    45  24  43 E13       29.94F
OCONTO         CLOUDY    41  23  49 NE13G18   29.95F
STURGEON BAY   CLOUDY    39  19  45 NE9G17    29.99S WCI  33
GREEN BAY      CLOUDY    46  25  43 NE20      29.94S
MANITOWOC      CLOUDY    42  26  53 E10G18    29.92S
APPLETON       PTSUNNY   45  19  36 E17       29.91F
CLINTONVILLE   SUNNY     45  21  39 E15       29.92F
OSHKOSH        CLOUDY    43  27  53 NE12      29.89F
$$

WIZ032>034-041-042-053>061-251600-
SOUTHWEST WISCONSIN

CITY           SKY/WX    TMP DP  RH WIND       PRES   REMARKS
LA CROSSE      CLOUDY    45  36  70 E15       29.83S
SPARTA         CLOUDY    43  35  74 E12G18    29.85S
VIROQUA        CLOUDY    42  37  83 E13       29.81S
BOSCOBEL       CLOUDY    45  35  68 NE9G22    29.81S
PRAIRIE DU CHI CLOUDY    45  35  67 E8        29.79R
PLATTEVILLE    CLOUDY    44  38  79 NE14G21   29.76F
$$

WIZ056-057-062-063-064-067-068-251600-
SOUTH CENTRAL WISCONSIN

CITY           SKY/WX    TMP DP  RH WIND       PRES   REMARKS
REEDSBURG      CLOUDY    42  35  78 E13G21    29.84R
BARABOO/DELLS  CLOUDY    43  35  73 NE10G18   29.84S
LONE ROCK      CLOUDY    45  37  73 E15       29.82S
MINERAL POINT  CLOUDY    45  37  76 NE15G22   29.78R
MADISON        CLOUDY    44  36  73 E18G25    29.82F
MIDDLETON      CLOUDY    45  37  73 E13G18    29.83S
WATERTOWN      CLOUDY    43  38  82 E13G20    29.83S
MONROE         CLOUDY    45  37  76 NE13G22   29.76F
JANESVILLE     CLOUDY    46  37  71 E18G26    29.78F
$$

WIZ051-052-058>065-066-070>072-251600-
SOUTHEAST WISCONSIN

CITY           SKY/WX    TMP DP  RH WIND       PRES   REMARKS
MILWAUKEE      CLOUDY    41  35  79 NE13      29.86F
WAUKESHA       CLOUDY    39  34  81 NE12G17   29.85F WCI  32
MILWAUKEE/TIMM CLOUDY    41  32  70 NE10G16   29.86F
RACINE         CLOUDY    43  37  79 E14G21    29.85F
BURLINGTON     CLOUDY    42  37  82 E12       29.81F
KENOSHA        CLOUDY    43  38  82 E20       29.83S
FOND DU LAC    CLOUDY    45  29  53 NE10      29.88F
SHEBOYGAN      CLOUDY    40  32  73 NE14      29.90F WCI  32
WEST BEND      CLOUDY    41  30  65 NE14      29.86F
JUNEAU         CLOUDY    43  34  70 NE15      29.86S
$$

LSZ147-162-251600-
LAKE SUPERIOR

STATION/POSITION TIME  TEMP    WIND        PRES    WAVE
                       AIR SEA DIR/SP/G            HT/PER
                 (UTC) (F)     (DEG/KT/KT) (MB)    (FT/S)
W MID LAKE BUOY  1450   34 34   50/ 16/ 17 1018.0S   3/ 4
DEVILS ISLAND    1500   35      70/ 18/ 19 1017.2R
PORT WING        1440   37      40/ 17/ 21 1015.9R
SAXON HARBOR     1400   38      50/ 13/ 15 1014.9
$$

LMZ867-665-643>646-251600-
LAKE MICHIGAN

STATION/POSITION TIME  TEMP    WIND        PRES    WAVE
                       AIR SEA DIR/SP/G            HT/PER
                 (UTC) (F)     (DEG/KT/KT) (MB)    (FT/S)
CHAMBERS ISLAND  1400   36      10/ 13/ 14 1015.9R
NORTHPORT PIER   1400   37      60/  7/ 10 1015.9R
SISTER BAY       1417   48     110/  9/ 13   N/A
KEWAUNEE LAKESHO 1400   37      40/ 13/ 16 1013.4F
SHEBOYGAN LAKESH 1500   38      50/ 13/ 15 1013.2F
PORT WASHINGTON  1400   41      30/ 12/ 16 1012.9F
MILWAUKEE LAKESH 1400   39      30/ 12/ 14   N/A
KENOSHA   LAKESH 1500   41      80/ 18/ 21 1010.2S
$$

TC  - TEMPERATURE IN CELSIUS
VSB - VISIBILITY IN STATUTE MILES
WCI - WIND CHILL INDEX
HX  - HEAT INDEX




USA.gov is the U.S. government's official web portal to all federal, state and local government web resources and services.